Regional Weather Roundup
Issued by NWS

Home | Current Version | Previous Version | Text Only | Print | Product List | Glossary Off
Versions: 1 2 3 4 5 6 7 8 9 10 11 12 13 14 15 16 17 18 19 20 21 22 23 24 25 26 27 28 29 30 31 32 33 34 35 36 37 38 39 40 41 42 43 44 45 46 47 48 49 50

000
ASUS43 KMKX 180110
RWRWI

WISCONSIN REGIONAL WEATHER ROUNDUP
NATIONAL WEATHER SERVICE MILWAUKEE/SULLIVAN WI
700 PM CST SUN DEC 17 2017

NOTE: "FAIR" INDICATES FEW OR NO CLOUDS BELOW 12,000 FEET WITH NO
SIGNIFICANT WEATHER AND/OR OBSTRUCTIONS TO VISIBILITY.

WIZ001-002-006>008-014>016-023>028-180200-
NORTHWEST WISCONSIN

CITY           SKY/WX    TMP DP  RH WIND       PRES   REMARKS
SUPERIOR ARPT  CLOUDY    26  21  82 SW3       29.97S
ASHLAND        CLOUDY    28  24  85 SW5       29.96S WCI  23
HAYWARD        CLOUDY    26  24  92 CALM      29.95R
SIREN          CLOUDY    26  24  93 CALM      29.96S FOG
CUMBERLAND     CLOUDY    27  25  93 S5        29.95S FOG     WCI  21
RICE LAKE      CLOUDY    28  27  97 CALM      29.98S FOG
CHETEK         CLOUDY    28  27  96 S5        29.97R WCI  22
LADYSMITH      CLOUDY    28  26  92 S6        29.97S WCI  22
EAU CLAIRE     CLOUDY    28  26  92 S5        29.97S WCI  23
MENOMONIE      CLOUDY    28  27  94 CALM      29.98S FOG
NEW RICHMOND   CLOUDY    27  25  92 S3        29.97S
OSCEOLA        CLOUDY    27  27 100 CALM      30.00S FOG
$$

WIZ003>005-009-010-017-018-180200-
NORTH CENTRAL WISCONSIN

CITY           SKY/WX    TMP DP  RH WIND       PRES   REMARKS
MANITOWISH WTR CLOUDY    24  24 100 S3        29.92R
ARBOR VITAE    CLOUDY    27  26  96 SW3       29.92R
WOODRUFF       CLOUDY    27  26  96 SW3       29.92R
RHINELANDER    CLOUDY    26  26 100 S5        29.92S FOG     WCI  20
EAGLE RIVER    CLOUDY    25  25 100 S3        29.91R
LAND O LAKES   CLOUDY    26  25  96 CALM      29.93R
PHILLIPS       CLOUDY    26  25  99 SW3       29.93R
TOMAHAWK       CLOUDY    26  24  93 CALM      29.94S FOG
MEDFORD        CLOUDY    25  25  97 S7        29.94R FOG     WCI  18
MERRILL        CLOUDY    27  26  96 CALM      29.96R
$$

WIZ029-030-035-036-043>047-180200-
CENTRAL WISCONSIN

CITY           SKY/WX    TMP DP  RH WIND       PRES   REMARKS
WAUSAU         CLOUDY    27  26  96 S6        29.94S FOG     WCI  20
MOSINEE        CLOUDY    27  27 100 SE6       29.97R FOG     WCI  20
MARSHFIELD     CLOUDY    27  26  96 S6        29.95S FOG     WCI  20
STEVENS POINT  FOG       26  26 100 SE6       29.98S VSB 3/4 WCI  19
WAUPACA        CLOUDY    30  26  86 CALM      30.00F
WAUTOMA        CLOUDY    29  26  89 NE3       30.00S
WISC RAPIDS    CLOUDY    28  27  96 CALM      29.99F FOG
CAMP DOUGLAS   CLOUDY    30  29  94 SE3       29.97F
$$

WIZ011>013-019>022-031-037>040-048>050-180200-
NORTHEAST WISCONSIN

CITY           SKY/WX    TMP DP  RH WIND       PRES   REMARKS
ANTIGO         CLOUDY    25  25 100 S7        29.95R FOG     WCI  17
SHAWANO        CLOUDY    29  28  93 CALM      29.99R FOG
OCONTO         CLOUDY    30  29  94 CALM      29.99S
STURGEON BAY   CLOUDY    30  28  92 CALM      29.99F
GREEN BAY      CLOUDY    30  27  88 S6        30.00S FOG     WCI  24
MANITOWOC      CLOUDY    31  29  92 W3        30.01R FOG
APPLETON       LGT SNOW  28  28 100 CALM      29.98R
CLINTONVILLE   CLOUDY    28  27  93 CALM      30.00R FOG
OSHKOSH        CLOUDY    30  28  92 CALM      29.99S FOG
$$

WIZ032>034-041-042-053>061-180200-
SOUTHWEST WISCONSIN

CITY           SKY/WX    TMP DP  RH WIND       PRES   REMARKS
LA CROSSE      CLOUDY    32  29  88 CALM      29.99F FOG
SPARTA         CLOUDY    30  29  98 CALM      29.99F FOG
VIROQUA        CLOUDY    30  30 100 CALM      29.97R
BOSCOBEL       CLOUDY    34  29  82 CALM      30.00R
PRAIRIE DU CHI CLOUDY    34  28  81 CALM      29.99R
PLATTEVILLE    CLOUDY    34  32  92 E3        29.98F
$$

WIZ056-057-062-063-064-067-068-180200-
SOUTH CENTRAL WISCONSIN

CITY           SKY/WX    TMP DP  RH WIND       PRES   REMARKS
REEDSBURG      CLOUDY    31  30  95 CALM      29.98S
BARABOO/DELLS  CLOUDY    31  29  92 CALM      29.98R FOG
LONE ROCK      CLOUDY    33  30  88 CALM      30.00R FOG
MINERAL POINT  CLOUDY    34  34 100 CALM      29.98R
MADISON        CLOUDY    32  29  88 SE3       30.01R FOG
MIDDLETON      CLOUDY    33  31  91 CALM      30.01R
WATERTOWN      CLOUDY    32  32 100 CALM      29.99R FOG
MONROE         CLOUDY    34  30  86 CALM      29.97S FOG
JANESVILLE     CLOUDY    36  34  93 CALM      29.99R FOG
$$

WIZ051-052-058>065-066-070>072-180200-
SOUTHEAST WISCONSIN

CITY           SKY/WX    TMP DP  RH WIND       PRES   REMARKS
MILWAUKEE      CLOUDY    36  33  89 W5        30.00R FOG     WCI  32
WAUKESHA       CLOUDY    30  28  93 N2        30.00R FOG
MILWAUKEE/TIMM CLOUDY    32  28  86 W3        30.00S FOG
RACINE         CLOUDY    34  32  92 NW3       30.01R FOG
BURLINGTON     CLOUDY    45  45 100 CALM      29.99S FOG
KENOSHA        CLOUDY    34  30  85 NW3       29.99R FOG
FOND DU LAC    CLOUDY    31  27  85 CALM      29.99S
SHEBOYGAN      CLOUDY    31  30  96 NW6       29.98F FOG     WCI  25
WEST BEND      CLOUDY    32  32 100 CALM      29.98S FOG
JUNEAU         CLOUDY    30  29  94 CALM      30.01R FOG
$$

LSZ147-162-180200-
LAKE SUPERIOR

STATION/POSITION TIME  TEMP    WIND        PRES    WAVE
                       AIR SEA DIR/SP/G            HT/PER
                 (UTC) (F)     (DEG/KT/KT) (MB)    (FT/S)
DEVILS ISLAND    0000   29     230/ 12/ 15 1015.0F
SAXON HARBOR     0030   29                 1014.2S
$$

LMZ867-665-643>646-180200-
LAKE MICHIGAN

STATION/POSITION TIME  TEMP    WIND        PRES    WAVE
                       AIR SEA DIR/SP/G            HT/PER
                 (UTC) (F)     (DEG/KT/KT) (MB)    (FT/S)
NORTHPORT PIER   0040   31        CALM     1015.6S
KEWAUNEE LAKESHO 0048   31     310/  3/  4 1014.9R
SHEBOYGAN LAKESH 0100   33     280/  3/  3 1015.9F
PORT WASHINGTON  0040   33     310/  2/  3 1016.6S
MILWAUKEE LAKESH 0050   34     280/  6/  7   N/A
KENOSHA   LAKESH 0000   35     340/  3/  3 1015.6
$$

TC  - TEMPERATURE IN CELSIUS
VSB - VISIBILITY IN STATUTE MILES
WCI - WIND CHILL INDEX
HX  - HEAT INDEX





USA.gov is the U.S. government's official web portal to all federal, state and local government web resources and services.